Wind_Speed
35 36 36 37 38 39 39 40 41 42 43 43 44 45 46 47 47 48 48 50 50 50 50 50 50 50 50 50 49 49 49 49 49 49 47 47 46 46 46 45 44 45 45
35 36 37 37 38 39 40 41 42 43 44 45 46 47 47 49 49 50 50 51 52 53 53 52 53 53 53 53 53 53 53 53 53 53 52 51 50 49 49 49 48 47 48
35 36 37 38 38 39 41 41 43 44 46 47 47 48 48 50 51 51 52 52 54 54 54 54 54 55 55 55 56 57 57 56 56 56 56 55 54 53 52 52 52 51 51
36 37 38 39 40 41 42 43 44 45 47 48 48 49 50 51 52 52 53 54 54 55 56 56 56 56 57 57 58 59 59 59 59 59 58 58 58 57 55 54 54 55 54
37 38 39 39 41 42 43 44 44 46 47 49 49 49 50 52 53 53 53 54 55 55 56 56 57 58 59 60 60 61 61 61 60 60 59 59 59 60 59 58 56 56 56
38 38 39 40 41 41 42 44 45 46 47 48 49 50 51 52 53 54 54 55 55 56 56 57 58 59 61 61 61 61 62 62 61 61 61 60 60 60 61 61 59 58 57
38 39 39 40 41 41 42 43 44 45 46 47 48 49 50 51 52 53 54 55 56 56 58 58 59 60 61 62 62 62 62 62 62 62 62 61 61 61 61 61 61 60 59
38 39 40 41 41 42 43 44 45 45 46 46 47 48 50 51 51 52 53 54 55 56 57 58 59 60 61 61 61 62 62 63 63 62 62 62 62 61 61 62 62 62 60
38 39 39 40 41 42 43 44 45 45 46 47 47 48 49 49 50 51 52 53 55 56 56 58 59 60 60 61 61 61 62 63 63 62 62 62 62 62 62 62 63 63 62
38 39 40 41 41 42 43 44 44 45 46 47 47 48 49 49 49 50 51 52 54 56 57 58 59 59 60 60 60 61 61 61 61 62 62 61 61 61 61 61 62 62 63
38 39 40 42 43 44 44 45 45 45 46 47 48 49 49 50 51 51 52 53 54 56 56 57 57 58 59 60 60 59 60 60 60 60 60 61 61 61 61 61 61 62 62
39 40 41 42 44 45 45 45 46 46 47 48 49 50 50 51 52 52 53 55 55 56 56 56 56 57 58 59 59 58 58 58 58 59 59 59 60 59 60 60 60 60 60
41 42 43 43 44 45 46 46 46 47 48 49 50 51 51 52 52 52 54 54 55 55 56 56 56 55 56 57 58 58 56 56 57 56 57 57 58 58 57 57 57 57 58
43 43 44 45 45 46 46 46 47 47 48 49 49 50 51 52 52 52 53 54 54 54 54 54 55 55 56 56 57 57 56 55 55 54 54 55 56 56 55 55 56 56 57
44 44 45 45 46 46 46 47 47 48 48 48 48 49 49 50 51 51 51 52 53 53 53 52 53 54 55 55 55 55 54 53 53 51 51 52 53 53 54 54 54 54 54
44 45 45 45 45 45 46 46 47 47 48 48 48 48 49 50 50 51 51 51 51 51 50 50 51 52 52 53 54 54 53 52 51 51 50 50 51 52 53 53 53 52 52
44 45 45 45 45 46 46 47 47 48 48 49 49 49 49 49 50 50 50 51 51 51 51 50 50 50 51 51 52 52 51 49 49 49 49 48 48 50 50 50 49 49 49
44 45 45 45 45 46 46 47 47 48 49 49 49 49 49 49 49 49 50 50 50 50 50 50 51 51 51 50 50 49 48 47 47 46 46 46 46 46 47 48 47 46 46
45 45 45 45 46 46 47 47 48 48 49 49 48 49 49 49 48 48 48 49 48 48 48 49 50 50 50 49 49 48 47 46 45 45 45 45 45 45 45 46 44 44 44
45 45 46 46 46 47 47 47 48 48 48 48 48 48 48 48 48 48 47 48 47 47 47 47 48 48 49 49 48 48 46 45 44 45 45 44 44 44 44 45 44 43 42
45 45 46 46 47 47 48 47 47 47 47 47 47 47 47 48 48 48 47 47 47 46 46 46 46 46 46 47 46 46 46 44 44 43 43 43 43 43 43 43 43 42 41
45 45 46 47 47 48 47 47 47 47 46 46 47 47 47 47 47 46 46 46 46 45 45 45 44 43 43 43 43 43 43 43 42 41 41 41 41 40 40 41 41 41 41
44 45 46 46 47 47 47 47 46 46 46 46 46 46 46 46 46 45 45 45 45 45 44 43 41 40 39 40 40 41 41 42 41 40 40 40 39 38 39 39 40 40 40
45 45 46 46 46 46 47 46 46 45 45 45 45 45 45 44 44 44 44 44 44 44 42 40 39 38 38 38 38 39 39 39 38 38 38 38 38 38 38 37 37 38 38
45 45 46 46 47 46 46 46 45 44 44 44 44 44 43 42 42 42 42 42 42 41 40 38 37 36 36 35 36 36 36 36 36 36 36 36 36 36 36 35 35 36 37
46 46 46 46 46 46 46 45 45 44 44 43 43 43 42 41 41 40 40 40 39 38 37 36 36 35 34 33 34 33 33 33 33 33 32 33 34 34 34 34 34 35 36
Wind_Direction
272 271 271 271 270 270 270 269 268 268 267 267 267 267 266 266 266 266 266 264 263 263 263 262 263 264 265 266 266 266 267 267 266 265 264 264 265 264 264 264 263 263 262
274 273 272 272 272 273 273 271 269 269 268 268 268 267 267 267 266 266 266 266 265 264 264 264 265 265 265 265 266 266 267 266 266 265 264 263 263 263 263 263 263 263 263
275 274 273 273 273 274 274 274 271 270 270 270 269 268 268 268 267 267 266 266 266 265 264 264 265 266 266 266 266 266 267 266 266 266 266 265 263 262 262 262 263 263 263
277 276 275 275 275 275 276 276 274 272 271 271 269 269 268 268 267 267 266 266 266 266 265 265 265 267 267 267 267 267 267 267 266 266 266 266 265 264 261 261 262 262 261
279 278 277 278 278 277 277 277 276 275 273 271 270 269 269 269 268 268 268 267 267 268 268 267 266 267 268 268 268 268 268 267 266 265 265 265 265 264 263 261 261 261 261
280 280 279 279 279 279 279 278 278 277 276 274 272 271 271 270 269 268 268 269 269 269 269 269 268 268 269 268 269 268 268 267 266 265 264 264 264 264 264 262 261 260 260
283 283 282 281 281 281 280 279 278 278 278 276 274 274 273 273 272 271 271 270 270 271 271 271 270 269 269 268 268 268 267 267 266 265 264 264 264 263 263 263 262 260 259
284 284 283 283 282 282 282 281 280 279 279 278 276 276 276 275 274 274 272 272 272 272 272 273 272 270 269 268 268 268 267 267 265 264 264 263 264 263 263 263 262 261 259
285 285 285 284 284 284 283 283 282 280 280 280 279 278 278 277 276 275 274 274 274 273 274 274 274 272 269 269 269 269 268 267 265 265 264 263 263 263 262 263 262 262 260
289 288 286 285 286 286 285 284 283 282 281 281 280 280 278 278 278 278 277 277 277 276 275 277 276 274 271 269 270 270 269 268 266 265 264 263 263 263 262 262 262 262 261
292 290 288 286 286 287 287 286 285 284 282 281 281 280 279 279 280 280 279 278 279 278 276 276 277 275 273 271 270 271 270 268 267 265 264 263 262 262 261 261 261 261 261
293 292 291 289 288 288 288 287 286 285 284 282 282 281 281 281 280 280 280 279 279 279 277 276 276 276 274 272 271 270 270 269 267 265 264 263 262 262 261 261 260 260 260
294 293 293 292 290 289 288 288 287 286 286 284 283 283 282 282 282 281 280 280 279 279 278 277 276 276 275 272 271 270 269 267 266 266 264 263 262 261 260 260 260 259 259
296 295 294 293 292 291 290 289 288 288 288 287 285 284 284 284 283 282 281 280 279 279 279 278 276 276 276 274 271 270 269 268 267 267 265 264 262 260 259 259 260 259 259
296 296 295 294 293 293 291 290 289 289 289 289 287 286 285 285 284 283 282 281 280 280 279 279 278 277 277 275 272 270 269 268 267 266 264 263 261 261 259 259 259 261 260
297 297 297 295 295 293 292 292 291 290 290 290 289 288 287 285 285 285 283 282 282 281 281 280 280 278 277 275 273 271 269 267 266 266 264 263 262 261 260 259 259 260 260
298 299 298 297 295 294 293 293 293 292 292 292 291 289 288 287 286 285 285 284 282 282 281 280 280 279 278 275 273 272 269 268 267 266 264 263 263 262 260 258 259 260 260
298 299 299 297 296 295 294 293 294 294 294 293 292 290 289 288 287 286 285 285 284 283 282 281 281 280 279 277 275 273 271 268 267 266 265 264 263 261 261 259 259 259 259
298 299 299 298 297 297 296 294 294 294 294 294 293 291 290 289 288 288 287 286 286 284 283 282 282 281 279 277 274 272 269 268 267 266 265 265 263 261 260 259 259 259 258
298 299 299 299 298 298 297 296 295 294 295 294 294 293 291 289 288 288 289 288 287 286 285 284 283 281 278 276 274 271 269 268 267 266 265 264 263 260 260 259 258 258 257
299 299 299 299 299 299 298 297 296 295 295 295 295 294 293 291 290 289 289 289 288 287 286 285 283 280 278 276 273 270 269 268 267 266 264 262 262 261 259 258 258 258 257
300 300 300 300 301 300 299 299 298 296 295 295 295 295 294 292 291 290 289 289 288 288 287 286 284 281 278 275 272 269 268 268 267 267 264 261 260 259 257 257 257 258 258
300 301 301 302 302 301 300 299 298 297 296 296 296 295 295 294 293 291 290 289 288 288 288 286 284 280 278 275 271 269 268 268 267 267 264 261 259 258 257 257 257 257 257
302 302 302 303 303 302 301 300 299 297 297 297 297 296 295 294 293 292 291 290 289 288 288 286 284 280 277 277 273 269 267 267 266 265 262 259 258 257 257 257 257 256 256
302 303 303 303 303 302 302 300 299 298 298 299 299 298 297 295 294 293 293 292 291 290 288 285 282 279 277 275 273 270 267 264 263 262 260 257 255 255 256 256 255 255 256
302 303 304 304 304 303 302 301 300 300 299 299 299 298 297 296 295 294 294 294 291 289 289 286 284 280 277 274 272 269 266 264 262 261 259 256 254 253 253 254 254 254 254
Height
5718 5717 5716 5715 5715 5714 5714 5713 5713 5713 5713 5714 5714 5714 5715 5715 5715 5716 5716 5717 5719 5721 5722 5724 5726 5727 5729 5730 5731 5732 5733 5734 5735 5736 5738 5740 5740 5742 5743 5744 5746 5747 5749
5709 5708 5707 5706 5705 5704 5703 5703 5702 5702 5702 5702 5702 5702 5702 5703 5703 5703 5703 5704 5705 5707 5708 5710 5711 5713 5715 5716 5716 5717 5719 5720 5720 5722 5724 5726 5729 5729 5730 5731 5732 5734 5736
5699 5698 5697 5696 5695 5693 5692 5692 5691 5690 5690 5689 5689 5689 5689 5689 5690 5690 5690 5690 5691 5692 5694 5695 5696 5698 5699 5700 5701 5702 5703 5704 5705 5706 5708 5710 5713 5716 5718 5718 5719 5720 5721
5690 5688 5687 5686 5684 5682 5681 5680 5679 5678 5677 5676 5676 5676 5676 5676 5676 5676 5676 5676 5677 5678 5679 5680 5681 5682 5683 5683 5684 5685 5686 5687 5689 5689 5690 5692 5694 5697 5702 5704 5704 5705 5706
5681 5679 5677 5675 5673 5672 5670 5668 5667 5665 5664 5663 5663 5662 5662 5662 5661 5661 5661 5662 5662 5662 5663 5664 5664 5665 5665 5666 5666 5667 5668 5669 5670 5672 5673 5674 5676 5678 5681 5686 5689 5689 5690
5671 5669 5667 5665 5663 5661 5659 5657 5655 5653 5652 5650 5649 5649 5648 5648 5647 5647 5647 5647 5647 5647 5647 5647 5647 5647 5648 5648 5648 5649 5649 5650 5652 5653 5655 5657 5658 5660 5662 5665 5669 5673 5675
5662 5659 5657 5655 5652 5650 5648 5645 5643 5642 5639 5638 5636 5635 5634 5634 5633 5632 5632 5631 5631 5631 5631 5630 5630 5630 5630 5630 5630 5631 5631 5632 5633 5635 5637 5638 5639 5641 5643 5645 5649 5653 5657
5652 5649 5647 5644 5642 5639 5637 5634 5631 5629 5627 5625 5623 5622 5621 5620 5619 5618 5617 5616 5616 5615 5614 5614 5613 5612 5612 5612 5612 5612 5613 5613 5615 5616 5618 5619 5621 5622 5624 5626 5629 5633 5638
5642 5639 5637 5634 5631 5628 5625 5622 5620 5617 5615 5613 5611 5609 5607 5606 5604 5603 5602 5601 5600 5599 5598 5597 5596 5595 5594 5594 5594 5594 5594 5595 5596 5597 5599 5600 5602 5604 5605 5607 5609 5613 5617
5632 5629 5627 5624 5621 5617 5614 5611 5608 5605 5603 5600 5598 5596 5594 5592 5590 5589 5587 5586 5584 5583 5582 5580 5578 5577 5576 5575 5575 5576 5576 5576 5577 5578 5580 5581 5583 5585 5587 5588 5590 5592 5596
5623 5619 5616 5613 5610 5606 5603 5599 5596 5593 5590 5588 5585 5583 5581 5578 5576 5575 5573 5571 5569 5567 5565 5563 5561 5560 5559 5558 5557 5558 5558 5558 5559 5560 5561 5563 5564 5566 5568 5570 5572 5574 5576
5613 5609 5605 5602 5599 5595 5591 5588 5584 5581 5578 5575 5572 5570 5567 5564 5562 5560 5558 5555 5553 5550 5548 5546 5545 5543 5542 5541 5540 5540 5540 5540 5541 5542 5543 5544 5546 5548 5550 5552 5554 5556 5558
5603 5599 5595 5591 5587 5583 5580 5576 5572 5568 5565 5562 5559 5556 5553 5550 5547 5545 5542 5540 5537 5535 5532 5530 5528 5527 5525 5524 5523 5523 5523 5523 5524 5524 5525 5527 5528 5530 5532 5534 5537 5539 5541
5592 5588 5584 5579 5575 5571 5567 5564 5560 5556 5552 5549 5545 5542 5539 5536 5533 5530 5527 5524 5522 5519 5517 5515 5512 5511 5509 5507 5506 5505 5506 5506 5507 5507 5508 5510 5511 5513 5515 5518 5520 5522 5524
5581 5576 5572 5568 5563 5559 5555 5551 5547 5543 5540 5536 5532 5528 5525 5522 5519 5516 5512 5509 5507 5504 5502 5499 5497 5495 5492 5491 5489 5489 5489 5490 5491 5492 5492 5493 5495 5497 5499 5501 5504 5505 5507
5570 5565 5560 5556 5551 5547 5543 5539 5535 5531 5527 5523 5519 5515 5511 5508 5505 5501 5498 5495 5492 5489 5487 5484 5482 5479 5477 5475 5473 5472 5473 5474 5475 5476 5477 5478 5479 5481 5483 5485 5488 5490 5491
5558 5554 5549 5544 5540 5535 5531 5526 5522 5518 5514 5510 5505 5501 5498 5494 5490 5487 5483 5480 5477 5475 5472 5470 5467 5464 5462 5459 5458 5457 5457 5458 5459 5460 5461 5463 5464 5466 5468 5470 5473 5475 5476
5547 5542 5538 5533 5528 5523 5518 5514 5510 5505 5501 5496 5492 5488 5484 5480 5476 5473 5469 5466 5463 5460 5457 5455 5452 5450 5447 5444 5443 5442 5442 5443 5445 5446 5447 5448 5450 5452 5453 5456 5459 5461 5463
5536 5531 5526 5521 5516 5511 5507 5502 5497 5493 5488 5483 5478 5474 5470 5466 5462 5459 5455 5451 5448 5445 5443 5440 5438 5435 5433 5430 5429 5427 5428 5429 5431 5432 5433 5434 5436 5439 5439 5442 5445 5448 5449
5525 5520 5515 5510 5504 5499 5494 5490 5485 5480 5475 5470 5465 5460 5456 5452 5449 5445 5441 5438 5434 5431 5428 5426 5423 5421 5419 5417 5415 5414 5414 5416 5418 5420 5420 5421 5422 5424 5425 5428 5431 5434 5436
5513 5508 5503 5498 5493 5487 5482 5477 5472 5467 5462 5457 5452 5447 5443 5439 5435 5432 5428 5424 5421 5418 5415 5413 5410 5407 5405 5403 5402 5401 5401 5403 5405 5406 5408 5409 5409 5411 5413 5415 5418 5421 5423
5502 5497 5492 5486 5481 5475 5470 5465 5460 5455 5449 5445 5440 5435 5430 5426 5422 5418 5415 5411 5408 5405 5402 5399 5397 5394 5392 5390 5389 5389 5389 5390 5391 5393 5395 5396 5397 5399 5401 5403 5406 5408 5410
5491 5486 5480 5475 5469 5463 5458 5453 5447 5442 5437 5432 5427 5422 5417 5413 5409 5405 5402 5398 5395 5391 5389 5386 5384 5382 5380 5379 5378 5378 5378 5378 5379 5381 5382 5384 5385 5387 5390 5392 5394 5396 5398
5480 5474 5469 5463 5458 5452 5446 5440 5435 5430 5425 5420 5415 5410 5405 5401 5397 5393 5389 5386 5382 5379 5376 5373 5371 5370 5369 5367 5367 5366 5366 5367 5368 5370 5371 5372 5374 5376 5378 5381 5383 5385 5387
5469 5463 5457 5452 5446 5440 5434 5428 5423 5418 5413 5408 5403 5398 5394 5389 5385 5382 5377 5374 5370 5366 5364 5362 5360 5358 5358 5357 5356 5355 5356 5357 5358 5360 5361 5362 5363 5365 5367 5370 5372 5374 5376
5457 5452 5446 5440 5434 5428 5422 5417 5411 5406 5401 5397 5392 5387 5383 5378 5374 5371 5367 5362 5359 5356 5352 5350 5348 5347 5346 5346 5345 5345 5346 5346 5348 5349 5351 5352 5353 5355 5358 5360 5362 5364 5366